Home   Weather   33°54'N, 118°02'W   Past weeks
Flag for USA

Past Weather in 33°54'N, 118°02'W, USA — Yesterday and Last 2 Weeks

Now
69 °F

Sunny.


Feels Like: 69 °F
Forecast: 64 / 56 °F
Wind: 7 mph from North

Location: Los Angeles / USC Campus Downtown

Current Time: May 20, 2019 at 6:11:12 pm

Latest Report: May 20, 2019 at 4:47 pm


Visibility: 10 mi

Pressure: 29.90 "Hg

Humidity: 42%

Dew Point: 45 °F

Location of 33°54'N, 118°02'WLocation

Past Weather in 33°54'N, 118°02'W — Graph

°F

33°54'N, 118°02'W Temperature Yesterday

Maximum temperature yesterday: 65 °F (at 2:47 pm)
Minimum temperature yesterday: 52 °F (at 4:04 am)
Average temperature yesterday: 57 °F

High & Low Weather Summary for the Past Weeks

 TemperatureHumidityPressure
High74 °F (May 11, 11:47 am)93% (May 16, 7:12 am)30.08 "Hg (May 16, 7:12 am)
Low52 °F (May 19, 4:04 am)35% (May 17, 10:47 am)29.76 "Hg (May 9, 4:47 pm)
Average62 °F71%29.92 "Hg
* Reported May 5 4:47 pm — May 20 4:47 pm, 33°54'N, 118°02'W. Weather by CustomWeather, © 2019

Note: Actual official high and low records may vary slightly from our data, if they occured in-between our weather recording intervals... More about our weather records

Advertising

33°54'N, 118°02'W Weather History for the Previous 24 Hours

Scroll right to see more
 ConditionsComfort  
Time TempWeatherWind HumidityBarometerVisibility
4:47 pm
Mon, May 20
69 °FSunny.7 mph42%29.90 "Hg10 mi
3:47 pm69 °FSunny.5 mph42%29.90 "Hg10 mi
1:47 pm68 °FSunny.N/A45%29.90 "Hg10 mi
12:47 pm67 °FSunny.3 mph47%29.90 "Hg10 mi
11:47 am68 °FSunny.3 mph47%29.89 "Hg10 mi
10:47 am66 °FSunny.N/A50%29.88 "Hg10 mi
9:47 am67 °FSunny.5 mph45%29.88 "Hg10 mi
8:47 am62 °FSunny.5 mph58%29.88 "Hg10 mi
7:47 am60 °FSunny.No wind65%29.88 "Hg10 mi
6:47 am57 °FSunny.No wind72%29.87 "Hg10 mi
5:47 am56 °FPassing clouds.No wind72%29.85 "Hg10 mi
4:47 am57 °FOvercast.No wind69%29.84 "Hg10 mi
3:50 am55 °FPassing clouds.No wind74%29.85 "Hg10 mi
3:31 am55 °FOvercast.No wind77%29.85 "Hg10 mi
2:47 am54 °FPassing clouds.No wind80%29.84 "Hg10 mi
1:47 am56 °FClear.No wind75%29.85 "Hg10 mi
12:47 am57 °FPassing clouds.No wind78%29.87 "Hg10 mi
11:47 pm
Sun, May 19
57 °FPassing clouds.No wind78%29.87 "Hg10 mi
10:47 pm57 °FPassing clouds.7 mph78%29.88 "Hg10 mi
10:03 pm58 °FPartly cloudy.8 mph75%29.89 "Hg10 mi
9:57 pm58 °FMostly cloudy.5 mph78%29.89 "Hg10 mi
9:47 pm58 °FOvercast.3 mph78%29.88 "Hg10 mi
8:47 pm59 °FPassing clouds.5 mph75%29.87 "Hg10 mi
7:47 pm60 °FLight rain. Mostly cloudy.9 mph72%29.87 "Hg9 mi
6:47 pm61 °FScattered clouds.7 mph65%29.85 "Hg10 mi
Weather by CustomWeather, © 2019

See weather overview